QPF
0.00 0.00 0.00 0.00 0.01 0.01 0.01 0.01 0.01 0.00 0.00 0.00 0.00 0.00 0.00 0.00 0.00 0.00 0.00 0.00 0.00 0.00 0.00 0.00 0.00 0.00 0.00 0.00 0.00 0.00 0.01 0.02 0.03 0.05 0.05 0.04 0.05 0.04 0.04 0.07 0.13 0.12 0.09 0.09
0.00 0.00 0.00 0.00 0.00 0.00 0.00 0.01 0.00 0.00 0.00 0.00 0.00 0.00 0.00 0.00 0.00 0.00 0.00 0.00 0.00 0.00 0.00 0.00 0.00 0.00 0.00 0.00 0.00 0.00 0.01 0.02 0.03 0.04 0.04 0.04 0.05 0.04 0.04 0.05 0.09 0.08 0.08 0.09
0.00 0.00 0.00 0.00 0.00 0.00 0.00 0.01 0.01 0.00 0.00 0.00 0.00 0.01 0.01 0.00 0.00 0.00 0.00 0.00 0.00 0.00 0.00 0.00 0.00 0.00 0.00 0.00 0.00 0.00 0.01 0.02 0.02 0.02 0.03 0.03 0.04 0.04 0.04 0.03 0.05 0.04 0.04 0.07
0.00 0.00 0.00 0.00 0.00 0.00 0.00 0.00 0.00 0.01 0.00 0.00 0.00 0.01 0.03 0.01 0.00 0.00 0.00 0.00 0.00 0.00 0.00 0.00 0.00 0.00 0.00 0.00 0.00 0.00 0.01 0.01 0.01 0.02 0.03 0.04 0.04 0.05 0.04 0.04 0.04 0.03 0.02 0.04
0.00 0.00 0.00 0.00 0.00 0.00 0.00 0.00 0.00 0.01 0.00 0.00 0.01 0.01 0.03 0.03 0.02 0.00 0.00 0.00 0.00 0.00 0.00 0.00 0.00 0.00 0.00 0.00 0.00 0.00 0.01 0.01 0.01 0.02 0.03 0.05 0.04 0.03 0.02 0.02 0.03 0.03 0.02 0.02
0.00 0.00 0.00 0.00 0.00 0.00 0.00 0.00 0.00 0.01 0.01 0.01 0.01 0.01 0.04 0.04 0.01 0.00 0.00 0.00 0.00 0.00 0.00 0.00 0.00 0.00 0.00 0.00 0.00 0.00 0.00 0.01 0.01 0.01 0.02 0.03 0.04 0.04 0.03 0.03 0.03 0.04 0.03 0.03
0.00 0.00 0.00 0.00 0.00 0.00 0.00 0.01 0.02 0.02 0.02 0.01 0.01 0.01 0.01 0.02 0.01 0.01 0.01 0.00 0.00 0.00 0.00 0.00 0.00 0.00 0.00 0.00 0.00 0.00 0.00 0.01 0.01 0.01 0.01 0.02 0.02 0.03 0.04 0.04 0.04 0.04 0.03 0.03
0.01 0.00 0.00 0.00 0.00 0.00 0.00 0.00 0.01 0.01 0.02 0.03 0.02 0.01 0.01 0.01 0.01 0.00 0.00 0.00 0.00 0.00 0.00 0.00 0.00 0.00 0.00 0.00 0.00 0.00 0.00 0.01 0.01 0.01 0.01 0.02 0.03 0.03 0.04 0.04 0.04 0.03 0.02 0.02
0.00 0.00 0.00 0.00 0.00 0.00 0.01 0.00 0.00 0.00 0.01 0.01 0.01 0.00 0.00 0.00 0.00 0.01 0.00 0.01 0.00 0.00 0.00 0.00 0.00 0.00 0.00 0.00 0.01 0.01 0.01 0.01 0.01 0.01 0.01 0.01 0.02 0.02 0.03 0.07 0.07 0.04 0.02 0.02
0.00 0.00 0.00 0.00 0.00 0.00 0.00 0.00 0.00 0.00 0.01 0.01 0.01 0.01 0.02 0.01 0.00 0.00 0.00 0.00 0.00 0.00 0.00 0.00 0.01 0.01 0.01 0.02 0.04 0.02 0.02 0.05 0.03 0.01 0.02 0.01 0.02 0.01 0.02 0.05 0.10 0.09 0.05 0.03
0.00 0.00 0.00 0.00 0.00 0.00 0.00 0.00 0.00 0.00 0.00 0.01 0.02 0.03 0.03 0.04 0.01 0.00 0.00 0.00 0.00 0.01 0.01 0.00 0.01 0.03 0.02 0.02 0.02 0.02 0.01 0.02 0.02 0.02 0.02 0.03 0.02 0.02 0.02 0.03 0.04 0.04 0.04 0.04
0.00 0.00 0.00 0.00 0.00 0.00 0.00 0.00 0.00 0.00 0.00 0.00 0.01 0.02 0.01 0.01 0.01 0.00 0.00 0.00 0.00 0.01 0.01 0.00 0.01 0.05 0.05 0.02 0.02 0.03 0.02 0.01 0.01 0.01 0.02 0.02 0.02 0.02 0.03 0.03 0.03 0.03 0.03 0.04
0.00 0.00 0.00 0.00 0.00 0.00 0.00 0.00 0.00 0.00 0.00 0.00 0.02 0.02 0.01 0.00 0.00 0.00 0.00 0.00 0.00 0.01 0.01 0.01 0.01 0.06 0.05 0.02 0.02 0.03 0.04 0.02 0.01 0.01 0.01 0.02 0.02 0.02 0.02 0.03 0.03 0.04 0.03 0.03
0.00 0.00 0.00 0.00 0.00 0.00 0.00 0.00 0.00 0.00 0.00 0.00 0.02 0.02 0.01 0.01 0.01 0.01 0.00 0.00 0.01 0.01 0.01 0.02 0.02 0.05 0.03 0.02 0.01 0.00 0.01 0.01 0.01 0.01 0.01 0.02 0.02 0.02 0.02 0.02 0.04 0.04 0.04 0.04
0.00 0.00 0.00 0.00 0.00 0.00 0.00 0.00 0.00 0.00 0.00 0.00 0.01 0.01 0.01 0.01 0.01 0.01 0.01 0.00 0.00 0.02 0.02 0.03 0.06 0.08 0.06 0.04 0.02 0.02 0.01 0.01 0.01 0.01 0.01 0.01 0.01 0.02 0.03 0.04 0.06 0.05 0.04 0.04
0.00 0.00 0.00 0.00 0.00 0.00 0.00 0.00 0.00 0.00 0.00 0.00 0.00 0.00 0.01 0.01 0.01 0.02 0.01 0.00 0.00 0.02 0.05 0.05 0.06 0.10 0.05 0.03 0.02 0.02 0.01 0.01 0.01 0.01 0.01 0.01 0.03 0.03 0.05 0.09 0.11 0.07 0.06 0.06
0.00 0.00 0.00 0.00 0.00 0.00 0.00 0.00 0.00 0.00 0.00 0.00 0.00 0.00 0.00 0.01 0.03 0.03 0.02 0.00 0.00 0.01 0.03 0.03 0.04 0.04 0.03 0.02 0.01 0.00 0.01 0.00 0.01 0.01 0.02 0.04 0.06 0.07 0.10 0.12 0.11 0.06 0.06 0.06
0.00 0.00 0.00 0.00 0.00 0.00 0.00 0.00 0.00 0.00 0.00 0.00 0.00 0.01 0.00 0.01 0.03 0.03 0.02 0.01 0.00 0.01 0.02 0.02 0.03 0.03 0.03 0.01 0.01 0.00 0.00 0.00 0.01 0.02 0.04 0.07 0.07 0.07 0.08 0.08 0.08 0.05 0.05 0.05
0.00 0.00 0.00 0.00 0.00 0.00 0.00 0.00 0.00 0.00 0.00 0.00 0.00 0.00 0.00 0.01 0.01 0.01 0.01 0.00 0.01 0.01 0.01 0.01 0.01 0.01 0.01 0.01 0.01 0.01 0.01 0.01 0.02 0.03 0.04 0.04 0.07 0.16 0.15 0.07 0.05 0.05 0.04 0.05
0.00 0.00 0.00 0.00 0.00 0.00 0.01 0.00 0.00 0.00 0.01 0.00 0.00 0.00 0.00 0.01 0.02 0.02 0.00 0.01 0.01 0.01 0.01 0.01 0.02 0.02 0.02 0.02 0.02 0.02 0.02 0.02 0.02 0.02 0.03 0.04 0.07 0.12 0.10 0.08 0.06 0.05 0.05 0.05
0.00 0.01 0.01 0.00 0.00 0.01 0.01 0.00 0.00 0.01 0.03 0.01 0.01 0.00 0.00 0.01 0.01 0.01 0.01 0.01 0.02 0.01 0.01 0.02 0.02 0.02 0.02 0.03 0.03 0.02 0.02 0.02 0.03 0.04 0.04 0.05 0.08 0.07 0.07 0.06 0.06 0.06 0.05 0.04
0.01 0.01 0.01 0.01 0.01 0.01 0.00 0.01 0.01 0.02 0.01 0.02 0.01 0.01 0.01 0.01 0.01 0.01 0.01 0.01 0.02 0.01 0.02 0.02 0.02 0.01 0.01 0.01 0.02 0.01 0.01 0.02 0.02 0.02 0.02 0.03 0.03 0.04 0.04 0.05 0.06 0.07 0.06 0.05
0.03 0.02 0.02 0.02 0.02 0.01 0.01 0.02 0.03 0.02 0.01 0.01 0.01 0.00 0.00 0.01 0.01 0.01 0.01 0.01 0.01 0.01 0.01 0.01 0.02 0.02 0.02 0.02 0.02 0.03 0.02 0.01 0.01 0.01 0.02 0.02 0.02 0.02 0.03 0.04 0.04 0.05 0.07 0.07
0.03 0.02 0.02 0.02 0.03 0.02 0.01 0.01 0.02 0.02 0.00 0.00 0.00 0.00 0.00 0.00 0.01 0.01 0.01 0.01 0.01 0.01 0.00 0.01 0.01 0.01 0.02 0.03 0.03 0.03 0.03 0.02 0.01 0.02 0.02 0.01 0.01 0.01 0.02 0.03 0.03 0.03 0.03 0.04
0.03 0.02 0.02 0.02 0.04 0.06 0.02 0.01 0.01 0.00 0.00 0.00 0.00 0.00 0.00 0.00 0.00 0.01 0.01 0.01 0.01 0.01 0.01 0.01 0.01 0.01 0.01 0.02 0.02 0.02 0.03 0.03 0.03 0.03 0.02 0.02 0.01 0.02 0.02 0.03 0.03 0.03 0.02 0.03
0.02 0.02 0.03 0.03 0.03 0.04 0.03 0.02 0.01 0.01 0.01 0.01 0.01 0.01 0.00 0.01 0.01 0.01 0.02 0.03 0.03 0.03 0.03 0.02 0.01 0.01 0.01 0.02 0.03 0.03 0.04 0.04 0.04 0.03 0.03 0.02 0.02 0.02 0.02 0.03 0.03 0.04 0.04 0.04
MSLP
1007.19 1007.92 1008.50 1008.89 1009.10 1009.16 1009.14 1009.10 1009.12 1009.23 1009.45 1009.76 1010.14 1010.54 1010.92 1011.23 1011.45 1011.56 1011.59 1011.54 1011.46 1011.38 1011.32 1011.31 1011.38 1011.51 1011.72 1011.98 1012.29 1012.62 1012.96 1013.27 1013.54 1013.76 1013.90 1013.96 1013.93 1013.83 1013.65 1013.43 1013.19 1012.95 1012.75 1012.61
1007.58 1008.06 1008.38 1008.54 1008.58 1008.56 1008.57 1008.66 1008.89 1009.26 1009.75 1010.30 1010.85 1011.34 1011.71 1011.92 1011.97 1011.88 1011.69 1011.45 1011.22 1011.02 1010.91 1010.88 1010.96 1011.12 1011.36 1011.65 1011.99 1012.34 1012.71 1013.06 1013.38 1013.65 1013.85 1013.96 1013.97 1013.88 1013.70 1013.46 1013.19 1012.92 1012.70 1012.55
1007.67 1007.89 1007.96 1007.90 1007.80 1007.76 1007.85 1008.13 1008.62 1009.30 1010.08 1010.89 1011.62 1012.19 1012.54 1012.64 1012.50 1012.20 1011.78 1011.34 1010.94 1010.65 1010.48 1010.45 1010.55 1010.75 1011.03 1011.36 1011.73 1012.10 1012.48 1012.86 1013.20 1013.51 1013.75 1013.91 1013.96 1013.91 1013.75 1013.52 1013.24 1012.97 1012.74 1012.60
1007.50 1007.49 1007.34 1007.11 1006.94 1006.91 1007.12 1007.63 1008.41 1009.39 1010.48 1011.54 1012.43 1013.07 1013.38 1013.36 1013.04 1012.51 1011.88 1011.24 1010.70 1010.31 1010.11 1010.10 1010.24 1010.49 1010.82 1011.19 1011.57 1011.96 1012.33 1012.70 1013.05 1013.37 1013.64 1013.83 1013.93 1013.92 1013.80 1013.60 1013.34 1013.08 1012.86 1012.71
1007.17 1006.98 1006.66 1006.33 1006.12 1006.16 1006.52 1007.25 1008.30 1009.57 1010.92 1012.19 1013.23 1013.92 1014.19 1014.04 1013.56 1012.83 1012.01 1011.22 1010.55 1010.10 1009.88 1009.89 1010.08 1010.39 1010.77 1011.17 1011.57 1011.94 1012.30 1012.64 1012.96 1013.27 1013.54 1013.76 1013.89 1013.92 1013.84 1013.68 1013.45 1013.21 1012.99 1012.83
1006.78 1006.46 1006.05 1005.67 1005.48 1005.59 1006.10 1007.02 1008.30 1009.80 1011.36 1012.79 1013.93 1014.65 1014.89 1014.66 1014.04 1013.17 1012.21 1011.30 1010.57 1010.08 1009.86 1009.91 1010.14 1010.51 1010.92 1011.34 1011.73 1012.08 1012.39 1012.68 1012.96 1013.23 1013.48 1013.69 1013.84 1013.90 1013.86 1013.73 1013.54 1013.31 1013.09 1012.92
1006.42 1006.04 1005.59 1005.22 1005.06 1005.25 1005.87 1006.93 1008.36 1010.01 1011.71 1013.24 1014.45 1015.19 1015.42 1015.14 1014.46 1013.53 1012.50 1011.55 1010.78 1010.29 1010.10 1010.17 1010.45 1010.84 1011.28 1011.70 1012.07 1012.37 1012.62 1012.83 1013.04 1013.25 1013.46 1013.65 1013.79 1013.87 1013.86 1013.76 1013.58 1013.36 1013.14 1012.94
1006.14 1005.76 1005.33 1004.99 1004.88 1005.13 1005.82 1006.94 1008.44 1010.15 1011.89 1013.47 1014.71 1015.48 1015.73 1015.47 1014.81 1013.89 1012.89 1011.95 1011.21 1010.75 1010.59 1010.69 1010.99 1011.40 1011.83 1012.22 1012.55 1012.79 1012.96 1013.10 1013.23 1013.37 1013.52 1013.66 1013.79 1013.86 1013.85 1013.76 1013.60 1013.38 1013.14 1012.92
1005.95 1005.62 1005.25 1004.96 1004.91 1005.19 1005.88 1007.00 1008.46 1010.14 1011.85 1013.42 1014.66 1015.47 1015.79 1015.61 1015.05 1014.24 1013.34 1012.50 1011.84 1011.44 1011.31 1011.43 1011.73 1012.11 1012.52 1012.87 1013.13 1013.31 1013.41 1013.47 1013.52 1013.58 1013.66 1013.76 1013.85 1013.89 1013.88 1013.79 1013.62 1013.40 1013.15 1012.90
1005.82 1005.59 1005.32 1005.11 1005.09 1005.38 1006.03 1007.06 1008.42 1009.99 1011.60 1013.11 1014.34 1015.19 1015.61 1015.58 1015.19 1014.56 1013.84 1013.15 1012.61 1012.28 1012.19 1012.31 1012.59 1012.93 1013.27 1013.56 1013.77 1013.88 1013.91 1013.91 1013.89 1013.89 1013.91 1013.96 1014.00 1014.02 1013.98 1013.88 1013.71 1013.48 1013.22 1012.95
1005.74 1005.64 1005.49 1005.38 1005.42 1005.69 1006.26 1007.16 1008.35 1009.75 1011.22 1012.62 1013.82 1014.72 1015.25 1015.40 1015.24 1014.85 1014.35 1013.85 1013.45 1013.20 1013.14 1013.25 1013.47 1013.75 1014.02 1014.25 1014.39 1014.45 1014.44 1014.39 1014.33 1014.28 1014.26 1014.26 1014.27 1014.25 1014.19 1014.07 1013.90 1013.66 1013.40 1013.13
1005.67 1005.74 1005.75 1005.76 1005.86 1006.12 1006.60 1007.35 1008.35 1009.53 1010.82 1012.09 1013.23 1014.16 1014.81 1015.16 1015.23 1015.09 1014.83 1014.53 1014.27 1014.10 1014.06 1014.14 1014.30 1014.50 1014.69 1014.85 1014.94 1014.96 1014.93 1014.87 1014.79 1014.73 1014.68 1014.65 1014.62 1014.58 1014.49 1014.37 1014.19 1013.96 1013.71 1013.46
1005.64 1005.90 1006.10 1006.26 1006.44 1006.70 1007.11 1007.71 1008.50 1009.46 1010.54 1011.66 1012.72 1013.65 1014.40 1014.91 1015.19 1015.29 1015.25 1015.13 1015.00 1014.90 1014.86 1014.90 1014.98 1015.10 1015.22 1015.32 1015.37 1015.38 1015.36 1015.30 1015.24 1015.17 1015.12 1015.07 1015.02 1014.95 1014.86 1014.72 1014.54 1014.34 1014.11 1013.88
1005.68 1006.16 1006.56 1006.89 1007.18 1007.47 1007.83 1008.29 1008.89 1009.63 1010.50 1011.44 1012.39 1013.30 1014.09 1014.72 1015.17 1015.46 1015.60 1015.63 1015.59 1015.54 1015.49 1015.47 1015.49 1015.53 1015.58 1015.63 1015.66 1015.68 1015.67 1015.64 1015.61 1015.57 1015.52 1015.47 1015.40 1015.32 1015.21 1015.07 1014.90 1014.71 1014.51 1014.31
1005.84 1006.54 1007.15 1007.66 1008.08 1008.43 1008.76 1009.11 1009.55 1010.09 1010.75 1011.50 1012.32 1013.15 1013.93 1014.62 1015.18 1015.59 1015.85 1015.99 1016.02 1015.99 1015.92 1015.85 1015.79 1015.76 1015.76 1015.77 1015.80 1015.83 1015.86 1015.87 1015.87 1015.86 1015.83 1015.78 1015.70 1015.60 1015.48 1015.34 1015.18 1015.01 1014.83 1014.65
1006.19 1007.07 1007.88 1008.56 1009.11 1009.53 1009.85 1010.13 1010.43 1010.80 1011.26 1011.82 1012.48 1013.20 1013.93 1014.62 1015.22 1015.69 1016.03 1016.21 1016.28 1016.25 1016.16 1016.04 1015.93 1015.84 1015.80 1015.79 1015.82 1015.87 1015.93 1015.99 1016.02 1016.03 1016.01 1015.96 1015.88 1015.76 1015.63 1015.48 1015.32 1015.15 1014.99 1014.84
1006.72 1007.75 1008.70 1009.53 1010.19 1010.68 1011.01 1011.24 1011.44 1011.65 1011.94 1012.33 1012.83 1013.41 1014.05 1014.69 1015.28 1015.76 1016.11 1016.33 1016.40 1016.36 1016.25 1016.10 1015.94 1015.82 1015.75 1015.74 1015.77 1015.85 1015.94 1016.02 1016.08 1016.11 1016.09 1016.02 1015.92 1015.78 1015.63 1015.46 1015.29 1015.13 1014.97 1014.82
1007.41 1008.51 1009.56 1010.48 1011.22 1011.75 1012.10 1012.30 1012.42 1012.52 1012.67 1012.90 1013.25 1013.71 1014.24 1014.80 1015.34 1015.80 1016.15 1016.36 1016.43 1016.39 1016.26 1016.09 1015.92 1015.79 1015.71 1015.69 1015.73 1015.82 1015.92 1016.02 1016.09 1016.11 1016.08 1015.99 1015.86 1015.69 1015.50 1015.31 1015.12 1014.94 1014.77 1014.61
1008.17 1009.29 1010.36 1011.31 1012.07 1012.63 1012.98 1013.16 1013.23 1013.26 1013.31 1013.43 1013.67 1014.01 1014.44 1014.92 1015.40 1015.83 1016.16 1016.36 1016.44 1016.40 1016.28 1016.12 1015.95 1015.81 1015.73 1015.72 1015.76 1015.85 1015.96 1016.06 1016.11 1016.12 1016.06 1015.93 1015.76 1015.55 1015.32 1015.09 1014.87 1014.66 1014.47 1014.29
1008.91 1009.98 1011.01 1011.93 1012.68 1013.23 1013.58 1013.75 1013.80 1013.79 1013.79 1013.85 1014.01 1014.27 1014.63 1015.06 1015.49 1015.88 1016.20 1016.40 1016.49 1016.47 1016.37 1016.23 1016.08 1015.96 1015.89 1015.88 1015.93 1016.01 1016.10 1016.17 1016.20 1016.17 1016.07 1015.90 1015.67 1015.41 1015.14 1014.86 1014.60 1014.36 1014.14 1013.93
1009.55 1010.52 1011.46 1012.30 1013.00 1013.52 1013.86 1014.04 1014.09 1014.09 1014.08 1014.13 1014.27 1014.50 1014.83 1015.22 1015.63 1016.00 1016.32 1016.53 1016.64 1016.65 1016.58 1016.47 1016.35 1016.25 1016.19 1016.19 1016.23 1016.29 1016.36 1016.39 1016.37 1016.29 1016.14 1015.91 1015.63 1015.32 1014.99 1014.67 1014.37 1014.10 1013.84 1013.61
1010.03 1010.88 1011.70 1012.45 1013.08 1013.56 1013.89 1014.08 1014.17 1014.21 1014.25 1014.33 1014.49 1014.74 1015.07 1015.45 1015.85 1016.23 1016.55 1016.78 1016.91 1016.95 1016.92 1016.84 1016.75 1016.68 1016.63 1016.62 1016.64 1016.68 1016.70 1016.68 1016.61 1016.47 1016.25 1015.97 1015.63 1015.27 1014.90 1014.54 1014.20 1013.90 1013.62 1013.37
1010.36 1011.09 1011.80 1012.45 1013.00 1013.45 1013.78 1014.01 1014.16 1014.27 1014.38 1014.53 1014.75 1015.04 1015.40 1015.80 1016.21 1016.59 1016.91 1017.16 1017.31 1017.38 1017.38 1017.33 1017.26 1017.20 1017.15 1017.12 1017.12 1017.11 1017.07 1016.99 1016.85 1016.64 1016.36 1016.02 1015.63 1015.22 1014.82 1014.43 1014.07 1013.75 1013.47 1013.22
1010.58 1011.22 1011.83 1012.39 1012.90 1013.32 1013.67 1013.94 1014.16 1014.36 1014.57 1014.81 1015.10 1015.45 1015.84 1016.26 1016.68 1017.07 1017.39 1017.64 1017.80 1017.88 1017.89 1017.86 1017.80 1017.73 1017.67 1017.62 1017.56 1017.50 1017.39 1017.25 1017.03 1016.75 1016.41 1016.01 1015.58 1015.14 1014.71 1014.31 1013.95 1013.64 1013.37 1013.13
1010.79 1011.36 1011.90 1012.41 1012.88 1013.30 1013.67 1014.00 1014.30 1014.59 1014.89 1015.22 1015.58 1015.98 1016.41 1016.85 1017.26 1017.64 1017.95 1018.18 1018.33 1018.41 1018.41 1018.37 1018.30 1018.21 1018.12 1018.02 1017.91 1017.77 1017.60 1017.37 1017.09 1016.74 1016.34 1015.90 1015.44 1014.98 1014.55 1014.16 1013.83 1013.54 1013.31 1013.11
1011.09 1011.61 1012.11 1012.58 1013.03 1013.45 1013.85 1014.23 1014.60 1014.97 1015.36 1015.76 1016.18 1016.62 1017.06 1017.49 1017.89 1018.23 1018.51 1018.71 1018.84 1018.88 1018.87 1018.80 1018.70 1018.58 1018.44 1018.29 1018.11 1017.90 1017.65 1017.35 1016.99 1016.59 1016.14 1015.67 1015.20 1014.75 1014.34 1013.99 1013.70 1013.47 1013.29 1013.15
Thickness
5867 5854 5844 5851 5861 5859 5858 5852 5848 5856 5876 5867 5855 5848 5851 5856 5851 5845 5840 5837 5833 5831 5834 5834 5831 5828 5822 5816 5811 5808 5805 5802 5800 5797 5793 5790 5789 5790 5790 5791 5790 5789 5788 5787
5848 5844 5863 5876 5876 5868 5862 5855 5852 5862 5876 5869 5855 5850 5857 5861 5857 5854 5848 5843 5840 5837 5836 5834 5833 5830 5825 5819 5815 5811 5807 5805 5803 5800 5798 5796 5794 5793 5794 5793 5792 5790 5789 5788
5840 5855 5873 5870 5866 5860 5859 5857 5853 5854 5865 5867 5856 5840 5846 5858 5864 5863 5860 5856 5851 5845 5839 5837 5834 5833 5829 5823 5819 5817 5812 5809 5806 5804 5802 5800 5797 5795 5794 5793 5792 5792 5790 5789
5852 5866 5867 5863 5861 5862 5851 5867 5864 5859 5848 5839 5848 5819 5835 5848 5853 5857 5859 5859 5857 5855 5850 5845 5840 5836 5833 5830 5827 5822 5817 5813 5810 5808 5804 5799 5794 5791 5793 5794 5793 5793 5791 5790
5849 5861 5857 5854 5862 5867 5863 5875 5868 5861 5852 5841 5844 5827 5826 5844 5838 5851 5860 5863 5864 5862 5857 5851 5847 5843 5840 5837 5832 5826 5820 5816 5813 5810 5807 5803 5799 5797 5797 5797 5794 5792 5791 5790
5859 5873 5870 5867 5875 5875 5874 5868 5861 5857 5848 5820 5834 5826 5816 5836 5844 5854 5862 5866 5867 5867 5863 5858 5854 5849 5845 5842 5837 5830 5823 5818 5816 5812 5810 5805 5801 5799 5797 5795 5792 5791 5791 5789
5839 5857 5873 5878 5863 5867 5865 5842 5818 5808 5807 5806 5832 5827 5829 5859 5871 5871 5867 5868 5868 5869 5866 5860 5855 5849 5846 5843 5839 5834 5826 5820 5818 5814 5811 5808 5805 5802 5798 5796 5794 5792 5790 5788
5820 5827 5858 5869 5860 5852 5855 5846 5815 5797 5796 5806 5823 5822 5847 5876 5884 5884 5879 5874 5872 5869 5868 5863 5859 5853 5849 5846 5841 5836 5828 5822 5819 5816 5813 5811 5808 5804 5802 5800 5797 5795 5793 5791
5828 5831 5866 5872 5874 5863 5846 5844 5854 5834 5823 5812 5819 5836 5860 5879 5878 5878 5876 5870 5869 5870 5869 5865 5862 5857 5852 5847 5842 5838 5830 5824 5821 5818 5815 5812 5809 5806 5804 5803 5800 5797 5795 5794
5844 5831 5854 5869 5868 5866 5863 5858 5845 5828 5808 5795 5810 5823 5832 5848 5860 5868 5871 5870 5870 5870 5868 5866 5863 5859 5855 5851 5844 5840 5834 5826 5823 5820 5817 5814 5811 5808 5806 5803 5800 5798 5796 5794
5847 5829 5838 5852 5844 5842 5849 5846 5842 5838 5832 5808 5796 5808 5854 5853 5862 5865 5869 5872 5871 5869 5866 5865 5864 5861 5856 5851 5847 5841 5835 5829 5825 5822 5819 5816 5813 5810 5807 5803 5801 5798 5796 5793
5841 5832 5822 5839 5861 5868 5858 5849 5844 5822 5819 5825 5811 5818 5864 5863 5870 5872 5870 5871 5871 5869 5868 5864 5862 5858 5853 5849 5846 5840 5836 5832 5828 5825 5821 5816 5814 5811 5807 5804 5801 5798 5795 5792
5828 5816 5800 5810 5831 5848 5844 5849 5851 5846 5835 5820 5807 5818 5860 5863 5863 5866 5867 5866 5865 5865 5864 5863 5858 5853 5850 5847 5844 5841 5837 5833 5830 5826 5821 5816 5813 5810 5806 5803 5801 5798 5794 5790
5821 5806 5799 5796 5814 5833 5829 5837 5844 5839 5822 5815 5816 5825 5839 5846 5849 5854 5858 5859 5860 5859 5858 5854 5850 5848 5847 5844 5842 5839 5836 5834 5830 5825 5820 5815 5812 5810 5806 5803 5800 5796 5792 5788
5808 5793 5802 5813 5826 5833 5831 5832 5835 5832 5831 5822 5823 5827 5833 5842 5845 5847 5848 5851 5851 5849 5849 5848 5845 5840 5840 5840 5838 5837 5834 5831 5829 5823 5819 5815 5812 5809 5806 5801 5797 5794 5789 5786
5793 5784 5790 5794 5813 5820 5819 5830 5833 5832 5834 5832 5829 5827 5844 5849 5847 5842 5842 5843 5842 5840 5841 5840 5839 5835 5834 5835 5834 5832 5830 5828 5825 5820 5816 5813 5810 5805 5802 5798 5794 5789 5786 5782
5775 5770 5768 5775 5798 5802 5796 5820 5827 5830 5835 5832 5819 5824 5837 5834 5831 5830 5833 5836 5836 5835 5834 5831 5830 5830 5830 5830 5830 5827 5826 5825 5820 5815 5811 5808 5804 5800 5797 5794 5789 5785 5782 5778
5761 5758 5761 5765 5772 5758 5798 5833 5833 5827 5831 5836 5831 5831 5832 5828 5828 5831 5832 5831 5829 5830 5829 5827 5827 5825 5823 5825 5825 5825 5823 5818 5813 5809 5805 5802 5798 5794 5792 5789 5784 5781 5778 5774
5764 5752 5748 5751 5750 5764 5794 5813 5819 5812 5810 5827 5824 5824 5825 5827 5822 5818 5826 5828 5825 5825 5825 5824 5824 5822 5819 5818 5818 5816 5813 5810 5806 5802 5799 5797 5793 5789 5786 5782 5779 5776 5773 5769
5757 5751 5740 5741 5736 5743 5778 5806 5821 5810 5789 5812 5813 5810 5814 5813 5796 5798 5817 5820 5819 5818 5818 5816 5817 5815 5812 5811 5811 5806 5803 5800 5797 5796 5794 5791 5788 5784 5780 5777 5774 5771 5768 5764
5731 5731 5729 5732 5733 5751 5782 5801 5802 5770 5770 5797 5801 5800 5802 5796 5795 5801 5807 5807 5806 5807 5808 5808 5806 5803 5802 5801 5799 5795 5793 5790 5791 5791 5788 5785 5782 5778 5775 5771 5768 5764 5761 5757
5725 5725 5725 5727 5724 5735 5774 5781 5768 5765 5783 5787 5788 5790 5789 5790 5794 5794 5794 5793 5794 5794 5795 5796 5793 5791 5792 5792 5788 5784 5782 5784 5785 5782 5779 5777 5774 5771 5769 5763 5760 5757 5753 5749
5725 5728 5730 5727 5729 5747 5760 5759 5765 5771 5770 5773 5776 5780 5782 5780 5781 5782 5783 5783 5782 5782 5781 5783 5782 5780 5781 5782 5780 5775 5775 5776 5775 5772 5770 5768 5765 5763 5760 5756 5752 5749 5745 5741
5719 5731 5726 5721 5726 5738 5745 5750 5754 5757 5759 5764 5767 5769 5771 5770 5772 5772 5772 5772 5772 5773 5772 5773 5771 5769 5769 5770 5770 5769 5768 5767 5764 5761 5759 5758 5755 5753 5750 5747 5744 5739 5735 5731
5702 5712 5712 5709 5716 5721 5728 5736 5740 5745 5749 5753 5756 5758 5759 5761 5761 5762 5761 5761 5762 5762 5762 5762 5760 5758 5758 5759 5758 5759 5758 5756 5752 5750 5748 5747 5746 5743 5739 5736 5733 5731 5727 5725
5693 5694 5693 5695 5707 5709 5710 5723 5730 5730 5733 5738 5741 5742 5747 5749 5750 5753 5752 5752 5752 5751 5750 5749 5748 5747 5747 5747 5746 5747 5746 5745 5741 5738 5737 5737 5736 5734 5731 5726 5722 5719 5718 5716